Regional Weather Roundup
Issued by NWS

Home | Current Version | Previous Version | Graphics & Text | Print | Product List | Glossary On
Versions: 1 2 3 4 5 6 7 8 9 10 11 12 13 14 15 16 17 18 19 20 21 22 23 24 25 26 27 28 29 30 31 32 33 34 35 36 37 38 39 40 41 42 43 44 45 46 47 48 49 50
000
ASUS43 KDTX 221710
RWRMI
MICHIGAN HOURLY REGIONAL WEATHER ROUNDUP
NATIONAL WEATHER SERVICE DETROIT/PONTIAC MI
100 PM EDT TUE JUL 22 2014

NOTE: "FAIR" INDICATES FEW OR NO CLOUDS BELOW 12,000 FEET WITH NO
SIGNIFICANT WEATHER AND/OR OBSTRUCTION TO VISIBILITY.

MIZ047>049-052>055-059>063-066>070-074>076-081>083-221800-
SOUTHEAST LOWER MICHIGAN

CITY           SKY/WX    TMP DP  RH WIND       PRES   REMARKS
ADRIAN         SUNNY     85  63  47 SW13G20   30.06F
ALMA           SUNNY     83  64  52 SW15      30.01S
ANN ARBOR      SUNNY     85  63  47 SW9       30.05F
BAD AXE        SUNNY     83  64  52 S17       30.00F
DETROIT CITY   SUNNY     87  64  46 SW9       30.03F
DETROIT        SUNNY     86  65  49 S13G20    30.04F
FLINT          SUNNY     86  64  47 SW13      30.02F
GROSSE ILE     SUNNY     81  70  69 SE10      30.03F
HILLSDALE      SUNNY     84  65  53 S10       30.06F
HOWELL         SUNNY     84  61  45 S10G16    30.03F

CITY           SKY/WX    TMP DP  RH WIND       PRES   REMARKS
JACKSON        SUNNY     84  66  54 SW12      30.04F
LAMBERTVILLE   SUNNY     88  63  42 SW10G16   30.05F
LANSING        SUNNY     84  66  54 SW14      30.02F
LAPEER         NOT AVBL
MASON          SUNNY     82  65  56 SW7       30.04S
MONROE         SUNNY     88  63  42 S12       30.03F
MT. CLEMENS    SUNNY     84  69  59 S14       30.02F
PONTIAC        SUNNY     86  62  44 S9G17     30.04F
PORT HOPE        N/A     84  64  50 VRB7      29.97F
PORT HURON     SUNNY     82  68  61 S12       30.03F
TRI CITIES     SUNNY     85  65  51 S13G24    29.99F
YPSILANTI      SUNNY     90  64  42 SW14G21   30.05F HX  91
$$
MIZ043>046-050>051-056>058-064>065-071>073-077>080-221800-
SOUTHWEST LOWER MICHIGAN

CITY           SKY/WX    TMP DP  RH WIND       PRES   REMARKS
BATTLE CREEK   SUNNY     84  67  56 SW15      30.05R
BENTON HARBOR  MOSUNNY   83  67  58 SW14G23   30.04R
BIG RAPIDS     PTSUNNY   81  66  59 SW10G22   29.99S
COLDWATER      SUNNY     84  66  54 SW10G20   30.05S
HOLLAND        MOSUNNY   84  66  54 SW18G25   30.03S
GRAND RAPIDS   MOSUNNY   85  69  58 W9G21     30.02S
KALAMAZOO      SUNNY     85  67  54 S13       30.05R
MARSHALL       SUNNY     83  67  58 MISG      30.04S
MUSKEGON       MOSUNNY   81  65  58 S18G26    30.01R
$$
MIZ016>042-221800-
NORTHERN LOWER MICHIGAN

CITY           SKY/WX    TMP DP  RH WIND       PRES   REMARKS
ALPENA         SUNNY     85  64  49 S17G25    29.90F
BEAVER ISLAND  CLOUDY    76  67  74 S16G30    29.81F
BELLAIRE       PTSUNNY   83  67  58 S10G18    29.87F
CADILLAC       PTSUNNY   80  69  70 SW17      29.97S
CHARLEVOIX     PTSUNNY   81  68  65 S17G26    29.87F
FRANKFORT      PTSUNNY   81  65  58 SW15G28   29.89F
GAYLORD        MOSUNNY   83  63  50 SW18G29   29.92F
GRAYLING       MOSUNNY   83  65  53 S12G22    29.95F
HARBOR SPRINGS CLOUDY    82  66  58 S12G20    29.85F
HOUGHTON LAKE  SUNNY     82  65  56 S15       29.97F
MANISTEE       CLOUDY    81  64  57 S10G18    29.93F
OSCODA         SUNNY     84  64  50 S16G23    29.93F
PELLSTON       MOSUNNY   85  66  53 SW15G30   29.84F
TRAVERSE CITY  PTSUNNY   84  67  56 SW14G22   29.86F
$$
MIZ007>008-015-221800-
EASTERN UPPER MICHIGAN

CITY           SKY/WX    TMP DP  RH WIND       PRES   REMARKS
KINROSS        CLOUDY    79  68  69 S17G24    29.81F
MACKINAC ISLAN CLOUDY    78  65  64 S13G21    29.82F
NEWBERRY       LGT RAIN  70  65  84 SW28G38   29.79R
S. S. MARIE    CLOUDY    79  66  64 S16G23    29.80R
$$
MIZ004>006-011>014-085-221800-
CENTRAL UPPER MICHIGAN

CITY           SKY/WX    TMP DP  RH WIND       PRES   REMARKS
MANISTIQUE     CLOUDY    64  62  91 SW14G22   29.81S FOG
ESCANABA       PTSUNNY   79  68  69 S9        29.78F
MENOMINEE      CLOUDY    81  72  74 SW12G17   29.82R
SAWYER-GWINN   PTSUNNY   77  68  73 NW16      29.77R
$$
MIZ001>003-009>011-084-221800-
WESTERN UPPER MICHIGAN

CITY           SKY/WX    TMP DP  RH WIND       PRES   REMARKS
IRON MOUNTAIN  PTSUNNY   86  69  56 W14G22    29.80R HX  90
HOUGHTON       PTSUNNY   73  64  73 W29G47    29.76R
COPPER HARBOR    N/A     75  65  70 NW13G37   29.67R
IRONWOOD       CLOUDY    73  64  73 W15G29    29.87R
$$

ABBREVIATIONS USED IN REMARKS
   TC - TEMPERATURE IN CELSIUS
  WCI - WIND CHILL INDEX
   HX - HEAT INDEX
  VSB - VISIBILITY



USA.gov is the U.S. government's official web portal to all federal, state and local government web resources and services.